User: anonymous   Login
Location: Hastringsfeld
(50.9620°N, 10.4787°E)
Time: 16:31:14
(UTC+00:00)
Language:

ADEOS II - Orbit

View from above orbital plane
View from above orbital plane
View from above satellite
View from above satellite

Ground track
Ground track

The orbit data is extracted from the following two-line orbital elements,

1 27597U 02056A   24061.85615506  .00000447  00000-0  19727-3 0  9996
2 27597  98.6805   9.0600 0001475  45.0796 315.0505 14.28219502104931
Epoch (UTC): 01 March 2024 20:32:51
Eccentricity: 0.0001475
inclination: 98.6805°
perigee height: 796 km
apogee height: 799 km
right ascension of ascending node: 9.0600°
argument of perigee: 45.0796°
revolutions per day: 14.28219502
mean anomaly at epoch: 315.0505°
orbit number at epoch: 10493

The dashed part of the orbit path shows where the satellite is in the earth's shadow,  

DLR